Погода в Бруклине

США     42°20′39″N   75°10′14″W
темп.,
°C
ветер,
м/с
пор.,
м/с
влажн.,
%
обл.,
%
осадки,
мм/ч
давл.,
гПа
погр.,
м
20 апреля, вт
вт2023:00+5ю228934 0.0 101219
02:00+4ююв329252 0.0 101139
05:00+4ю389242 0.0 1011187
08:00+6з41087100 0.0 1012732
11:00+8з7116867 0.1 10141163
14:00+9з7125895 0.1 10151506
17:00+8з51166100 0.0 10151494
20:00+6зсз2574100 0.0 1016270
21 апреля, ср
ср2123:00+2св1184100 0.0 101612
02:00+2в2389100 1.8 1014177
05:00+3ссз1198100 5.5 101189
08:00+7ю51494100 5.7 1006875
11:00+9ю61496100 0.2 1001946
14:00−2сз61498100 8.7 1004502
17:00−1сз71292100 3.8 10071039
20:00−4сз61392100 3.9 10091121
22 апреля, чт
чт2223:00−4зсз61395100 0.1 1009940
02:00−5з71596100 0.3 1009803
05:00−5зсз71495100 0.3 1009911
08:00−5з71495100 0.8 1011983
11:00−1зсз91690100 0.9 10111861
14:000зсз91589100 1.8 10111750
17:00+1зсз81582100 0.6 10121872
20:00−1з71491100 0.8 10131187
23 апреля, пт
пт2323:00−1з6158697 0.2 10141166
02:00−2зюз6178838 0.2 1013906
05:000з71784100 0.0 10121219
08:00+1зсз71695100 0.9 10131165
11:00+1зсз51295100 0.1 10151086
14:00+4зсз51491100 0.1 10151365
17:00+8зсз714827 0.1 10141453
20:00+6з513916 0.3 1015554
24 апреля, сб
сб2423:00+4з414945 0.1 1017519
02:00+1зюз22945 0.1 101819
05:000ююз119140 0.0 101911
08:00+4юз24825 0.0 1019178
11:00+10з34685 0.0 1018857
14:00+13з3452100 0.1 10161880
17:00+12юз2464100 0.1 1015903
20:00+7ю118595 0.1 101510